Regional Weather Roundup
Issued by NWS State College, PA

Home | Current Version | Previous Version | Text Only | Print | Product List | Glossary On
Versions: 1 2 3 4 5 6 7 8 9 10 11 12 13 14 15 16 17 18 19 20 21 22 23 24 25 26 27 28 29 30 31 32 33 34 35 36 37 38 39 40 41 42 43 44 45 46 47 48 49 50
000
ASUS41 KCTP 030310
RWRCTP

REGIONAL WEATHER ROUNDUP
NATIONAL WEATHER SERVICE STATE COLLEGE PA
1100 PM EDT WED SEP 02 2015

Note: "fair" indicates few or no clouds below 12,000 feet with no
significant weather and/or obstructions to visibility.

* = STATION THAT DOES NOT REPORT PRECIPITATION /E.G. RAIN...SNOW...ETC/
    THUNDER OR FOG.

PAZ002>004-007>009-013>016-020>023-029>032-030400-
WESTERN PENNSYLVANIA

CITY           SKY/WX    TMP DP  RH WIND       PRES   REMARKS
ERIE           PTCLDY    73  67  81 S5        29.98S
MEADVILLE      CLEAR     71  66  84 CALM      30.02S
FRANKLIN*      CLEAR     72  66  83 CALM      30.04S
NEW CASTLE     FAIR      70  69  96 CALM      30.02S
BEAVER COUNTY  NOT AVBL
BUTLER*        PTCLDY    72  64  78 CALM      30.03S
PITTSBURGH INT MOCLDY    75  65  70 S3        30.02R
PITTSBURGH     CLEAR     75  61  61 S5        30.01S
INDIANA*       MOCLDY    72  68  88 CALM      30.05S
LATROBE        NOT AVBL
WASHINGTON CO* CLEAR     68  66  94 CALM      30.04R
$$

PAZ004>006-010>012-017>019-024>028-033>037-041-042-045-046-049>053-030400-
CENTRAL PENNSYLVANIA

CITY           SKY/WX    TMP DP  RH WIND       PRES   REMARKS
BRADFORD       CLEAR     65  63  93 CALM      30.05S FOG
DUBOIS         CLEAR     72  65  78 CALM      30.03S
CLEARFIELD     CLOUDY    71  66  84 CALM      30.03R
JOHNSTOWN      PTCLDY    72  63  73 W7        30.07S
ALTOONA        CLEAR     68  65  90 SW5       30.03S FOG
STATE COLLEGE  PTCLDY    69  67  91 SW3       30.00S
WILLIAMSPORT   MOCLDY    74  69  85 W3        29.95R
SELINSGROVE    PTCLDY    70  68  93 CALM      29.95S FOG
FT INDIANTOWN  MOCLDY    70  67  90 N1        29.95R
CAPITAL CITY   CLEAR     77  64  64 CALM      29.94S
HARRISBURG     PTCLDY    76  66  71 NW6       29.93S
YORK           CLEAR     68  65  90 CALM      29.95S
$$

PAZ038>040-043-044-047-048-054-055-060>062-067>071-030400-
EASTERN PENNSYLVANIA

CITY           SKY/WX    TMP DP  RH WIND       PRES   REMARKS
SCRANTON       CLEAR     72  63  73 E6        29.97R
MOUNT POCONO   CLEAR     63  61  93 N3        30.01R FOG
ALLENTOWN      CLEAR     72  65  78 CALM      29.93R
QUAKERTOWN*    CLEAR     70  66  88 CALM      29.94S
READING        CLEAR     74  66  76 NW3       29.93R
LANCASTER      CLEAR     73  66  78 W6        29.94R
COATESVILLE    CLEAR     72  64  78 W5        29.95S
POTTSTOWN      CLEAR     71  65  81 CALM      29.94S
BLUE BELL      CLEAR     72  66  83 CALM      29.91S
DOYLESTOWN     CLEAR     71  66  84 CALM      29.92R
WILLOW GROVE   NOT AVBL
NORTH PHILA    CLEAR     79  62  56 SW3       29.92S
PHILADELPHIA   CLEAR     79  68  69 SW7       29.91S
$$


USA.gov is the U.S. government's official web portal to all federal, state and local government web resources and services.